DELTA 1 DEB, 21290

Orbit data source: Space-Track

DELTA 1 DEB, 21290 is space debris in SSO originally from a launch on Thu, 12 Jun 1975 UTC launched from the Air Force Western Test Range (AFWTR). Debris objects in space refer to the collection of defunct objects orbiting the Earth. Examples of debris include non-operational satellites, rocket bodies, and fragments generated from explosions, collisions, or faulty payload assembly.

Loading next visibility...
Identifier
21290, 1975-052AB
Orbit
SSO
Country
Flag of USUS
Related business
Manufacturer
Unknown
Mission
Spacecraft
Bus & Motor
Unknown
Mass
Unknown
Launch date (UTC)
1975-06-12 (51 years ago)
Launch vehicle
Unknown
Launch site
Air Force Western Test Range (AFWTR)
Object type
Payload
Rocket body
Debris
Shape & HBR
Unknown shape, 0.1 m
Radar Cross Section
Medium (>0.1 m² and <1 m²)

Expand to show TLE details & history
Last TLE update: 2 days ago

TLE from 2 days ago
0 DELTA 1 DEB
1 21290U 75052AB  26171.23068315 -.00000030  00000-0  12944-5 0  9997
2 21290  99.5547  72.3627 0511225 162.8283 350.1991 12.43348189593219
Epoch: 2026-06-20T05:32Z
TLE epoch observation values (Epoch: 2026-06-20T05:32:11.024Z)
Latitude
27.6561°
Longitude
-94.09728°
Altitude
1,099.699 km
Speed
7.486 km/s
True Right ascension
17h 09m 35s
True Declination
27° 31' 17"
Sunlit
Object was in full shadow at epoch
Visualization orbit readout
Latitude
Unknown
Longitude
Unknown
Altitude
Unknown
Speed
Unknown
Apparent Right ascension
Unknown
Apparent Declination
Unknown
Sunlit
N/A
Visualization observer readout
Local Sidereal Time
16:06:13
Azimuth
Unknown
Elevation
Unknown
Doppler factor
Unknown
Orbital elements
Apogee altitude
1,892.103 km
Perigee altitude
1,087.638 km
Semi-major axis
7,868.007 km
Eccentricity
0.05112
Inclination
99.5547°
RAAN
72.3627°
Arg. of periapsis
162.8283°
True anomaly
349.13513°
Mean anomaly
350.1991°
Eccentric anomaly
349.67407°
Mean motion
3.1099 °/min
Orbital period
115.76 mins
BSTAR
0.0000012944
Loading maneuver chart data...
Computing Atmospheric mass density...
Loading historical data...
Loading historical data...
Loading historical data...
Loading historical data...
Loading historical data...
Loading historical data...
Loading historical data...

Documentation

Showing up to 5 results
|